Location: Unspecified
(0.0000°N, 0.0000°E)
Time: 10:03:30
(UTC+00:00)

A-11 Canister half - Pass Details

Date: 18 June 2024
Orbit: 1515 x 1684 km, 47.2° (Epoch: 23 July)

Event Time Altitude Azimuth Distance (km) Brightness Sun altitude
Rises 01:19:19 0° 355° (N) 4,717 11.9 -59.9°
Reaches altitude 10° 01:25:24 10° 24° (NNE) 3,701 11.3 -58.9°
Maximum altitude 01:28:30 12° 44° (NE) 3,535 11.2 -58.4°
Drops below altitude 10° 01:31:36 10° 64° (ENE) 3,678 11.3 -57.9°
Sets 01:37:30 0° 93° (E) 4,652 11.8 -56.9°
